Location: Broletto
(44.6000°N, 10.5833°E)
Time: 07:25:46
(UTC+00:00)

Meteor 2-3 Rocket - Pass Details

Date: 18 April 2021
Orbit: 841 x 886 km, 81.2° (Epoch: 05 May)

Event Time Altitude Azimuth Distance (km) Brightness Sun altitude
Rises 20:38:53 0° 348° (NNW) 3,489 7.8 -23.8°
Reaches altitude 10° 20:41:21 10° 348° (NNW) 2,541 7.0 -24.1°
Maximum altitude 20:47:08 82° 262° (W) 885 3.7 -24.8°
Enters shadow 20:48:26 55° 184° (S) 1,034 3.8 -24.9°
